[Iaude] MPEC E105: 2024 EF2 [a=3.16,e=0.66,i=11.4,H=24.2]

mpec at cfa.harvard.edu mpec at cfa.harvard.edu
Thu Mar 7 06:46:50 EST 2024


M.P.E.C. 2024-E105                                Issued 2024 March 7, 11:45 UT

     The Minor Planet Electronic Circulars contain information on unusual
         minor planets, routine data on comets and natural satellites,
         and occasional editorial announcements.  They are published
    on behalf of Division F of the International Astronomical Union by the
          Minor Planet Center, Smithsonian Astrophysical Observatory,
                          Cambridge, MA 02138, U.S.A.
			  
             Prepared using the Tamkin Foundation Computer Network

                              MPC at CFA.HARVARD.EDU
            URL https://www.minorplanetcenter.net/    ISSN 1523-6714

                                    2024 EF2                                    


Observations:
     K24E02F  C2024 03 01.43680610 16 12.476+08 34 30.59         21.66GVEE105F51
     K24E02F  C2024 03 01.44868010 16 14.533+08 35 11.40         21.05GVEE105F51
     K24E02F  C2024 03 01.46051210 16 16.655+08 35 52.63         20.89GVEE105F51
     K24E02F  C2024 03 01.47233710 16 18.713+08 36 32.78         21.04GVEE105F51
     K24E02F 1C2024 03 05.24987 10 30 22.12 +12 36 51.6          22.0 GVEE105G96
     K24E02F 1C2024 03 05.25513 10 30 23.31 +12 37 13.4          21.2 GVEE105G96
     K24E02F 1C2024 03 05.26041 10 30 24.52 +12 37 35.6          21.8 GVEE105G96
     K24E02F* C2024 03 06.33676310 35 10.100+13 55 23.88         21.22wXEE105F52
     K24E02F  C2024 03 06.34846610 35 13.086+13 56 16.06         21.21wXEE105F52
     K24E02F  C2024 03 06.37206710 35 19.081+13 58 01.61         20.99wXEE105F52
     K24E02F KB2024 03 06.92938210 37 55.47 +14 39 31.3          20.3 GXEE105I93
     K24E02F KB2024 03 06.93489910 37 57.00 +14 39 56.6          20.3 GXEE105I93
     K24E02F KB2024 03 06.94828210 38 00.57 +14 40 58.6          20.4 GXEE105I93
     K24E02F KC2024 03 06.98280710 38 09.98 +14 43 36.8                XEE105958
     K24E02F KC2024 03 06.99188910 38 12.45 +14 44 17.9          19.5 GXEE105958
     K24E02F KC2024 03 07.00093810 38 14.78 +14 45 01.0          19.7 GXEE105958
     K24E02F  C2024 03 07.02916 10 38 22.14 +14 47 08.4          21.3 RXEE105511
     K24E02F  C2024 03 07.03267 10 38 23.12 +14 47 24.9          21.6 RXEE105511
     K24E02F  C2024 03 07.03617 10 38 24.08 +14 47 39.7          20.7 RXEE105511
     K24E02F  C2024 03 07.03982 10 38 25.06 +14 47 57.3          21.1 RXEE105511
     K24E02F |C2024 03 07.11240010 38 48.710+14 54 38.80         20.8 GVEE105807
     K24E02F |C2024 03 07.12010010 38 50.780+14 55 14.20         21.1 GVEE105807
     K24E02F |C2024 03 07.12780010 38 52.900+14 55 50.70         21.1 GVEE105807
     K24E02F 1C2024 03 07.28638210 39 38.228+15 07 06.71         21.84GVEE105G96
     K24E02F 1C2024 03 07.29206010 39 39.762+15 07 33.56         20.62GVEE105G96
     K24E02F 1C2024 03 07.29775310 39 41.346+15 07 59.27         20.77GVEE105G96
     K24E02F 1C2024 03 07.30343710 39 42.854+15 08 26.30         21.02GVEE105G96

Observer details:
511 Haute Provence.  Observers D. Hestroffer, W. Thuillot.  Measurers W.
    Thuillot, S. Bouquillon, F. Taris, T. Carlucci, C. Barache.  1.20-m f/6
    reflector + CCD.
807 Cerro Tololo Observatory, La Serena.  Observers T. Linder, R. Holmes.
    0.61-m f/6.8 Ritchey-Chretien + CCD.
958 Observatoire de Dax.  Observers P. Dupouy, J. B. de Vanssay.  Measurer P.
    Dupouy.  0.43-m f/2.7 Reflector + CCD.
F51 Pan-STARRS 1, Haleakala.  Observers J. Herman, T. Lowe, P. Minguez, A.
    Schultz, I. Smith.  Measurers K. Chambers, T. de Boer, J. Fairlamb, H.
    Gao, M. Huber, C.-C. Lin, E. Magnier, Y. Ramanjooloo, R. Wainscoat, R.
    Weryk.  1.8-m Ritchey-Chretien + CCD.
F52 Pan-STARRS 2, Haleakala.  Observers J. Herman, T. Lowe, P. Minguez, A.
    Schultz, I. Smith.  Measurers K. Chambers, T. de Boer, J. Fairlamb, H.
    Gao, M. Huber, C.-C. Lin, E. Magnier, Y. Ramanjooloo, R. Wainscoat, R.
    Weryk.  1.8-m Ritchey-Chretien + CCD.
G96 Mt. Lemmon Survey.  Observers G. J. Leonard, J. B. Fazekas.  Measurers B.
    Gray, D. Rankin, F. C. Shelly, T. Beuden, V. F. Carvajal, D. Fay, J. B.
    Fazekas, D. C. Fuls, A. R. Gibbs, A. D. Grauer, H. Groeller, J. K. Hogan,
    R. A. Kowalski, S. M. Larson, G. J. Leonard, R. L. Seaman, K. W.
    Wierzchos.  1.5-m reflector + 10K CCD.
I93 St Pardon de Conques.  Observer F. Losse.  0.40-m f/3.7 reflector + CCD.

Orbital elements:
2024 EF2                                                 Earth MOID = 0.1181 AU
Epoch 2024 Mar. 31.0 TT = JDT 2460400.5                 Veres                   
M 359.09032              (2000.0)            P               Q                  
n   0.17572219     Peri.   35.78061     -0.95225202     +0.29868915             
a   3.1568333      Node   161.29176     -0.30524030     -0.92684639             
e   0.6595457      Incl.   11.37341     -0.00666684     -0.22746553             
P   5.61           H   24.28          G   0.15           U   8                  
Residuals in seconds of arc
240301 F51  0.2-  0.4-    240306 F52  0.1+  0.1+    240307 511  0.3+  1.0-
240301 F51  0.5-  0.3-    240306 I93  0.2-  0.3-    240307 511  0.2+  0.0
240301 F51  0.2+  0.4+    240306 I93  0.4+  0.3-    240307 807  0.1-  0.1-
240301 F51  0.1-  0.0     240306 I93  0.2-  0.3+    240307 807  0.3-  0.4-
240305 G96  0.7+  0.2+    240306 958  0.6+  0.4-    240307 807  0.2+  0.4+
240305 G96  0.0   0.2-    240306 958  0.9+  0.9-    240307 G96  0.1+  0.2-
240305 G96  0.5-  0.3-    240307 958  0.7-  0.8+    240307 G96  0.1-  0.3+
240306 F52  0.1-  0.4+    240307 511  0.1-  0.3-    240307 G96  0.3+  0.4-
240306 F52  0.0   0.2+    240307 511  0.2+  0.2+    240307 G96  0.3-  0.2+

Ephemeris:
2024 EF2                 a,e,i = 3.16, 0.66, 11                  q = 1.0748
Date    TT    R. A. (2000) Decl.     Delta      r    Elong.  Phase     V
2024 02 06    09 36 42.1 -03 07 09   0.3536  1.3242   160.2    14.6    23.5
...
2024 02 21    09 53 46.6 +01 42 25   0.2380  1.2235   169.5     8.5    22.2
...
2024 02 29    10 11 47.7 +07 15 46   0.1887  1.1777   171.9     6.8    21.5
...
2024 03 06    10 33 36.8 +13 30 45   0.1584  1.1479   168.7     9.8    21.2
2024 03 07    10 38 14.6 +14 45 20   0.1540  1.1433   167.6    10.7    21.2
2024 03 08    10 43 13.0 +16 03 25   0.1499  1.1389   166.5    11.7    21.2
...
2024 03 14    11 21 44.6 +24 56 05   0.1298  1.1151   157.3    20.1    21.1
...
2024 03 22    12 42 06.7 +37 15 24   0.1188  1.0915   141.2    34.9    21.3
...
2024 04 06    15 44 08.0 +44 14 41   0.1446  1.0748   117.3    55.8    22.3

M. P. C. Staff               (C) Copyright 2024 MPC           M.P.E.C. 2024-E105





More information about the Iaude mailing list